World > North America > United States > South Dakota > Rapid City   City of Rapid City, SD

Rapid City, SD Hourly Weather Updates

Feedback E-mail the Weather

Quick Clicks

Rapid City, SD Weather Maps

°F °C°F °C
Rapid City Weather Map
UTC Time: 6/17/2024, 05:03
Your Time:

Rapid City, SD Regional Weather

Expires:202406170600;;154276
ASUS43 KFSD 170502
RWRSD 

WEATHER ROUNDUP FOR SOUTH DAKOTA
NATIONAL WEATHER SERVICE SIOUX FALLS SD
1200 AM CDT MON JUN 17 2024

NOTE: "FAIR" INDICATES FEW OR NO CLOUDS BELOW 12,000 FEET WITH NO
SIGNIFICANT WEATHER AND/OR OBSTRUCTIONS TO VISIBILITY.



SDZ012>016-024>037-041>051-057-063-072>074-170600-
SOUTHWEST AND SOUTH CENTRAL SOUTH DAKOTA
  
CITY           SKY/WX    TMP DP  RH WIND       PRES   REMARKS
RAPID CTY ARPT PTCLDY    54  41  61 N10       29.81F TC  12           
PIERRE         PTCLDY    58  45  62 E6        29.77F TC  14           
CUSTER         PTCLDY    52  35  52 NE7       29.90S TC  11           
ELLSWORTH AFB  MOCLDY    62  38  42 N12       29.79F TC  17           
PHILIP         PTCLDY    59  44  57 E5        29.78S TC  15           
PINE RIDGE     MOCLDY    60  39  45 E9        29.79R TC  16           
SPEARFISH      MOCLDY    52  41  66 SE7       29.87F TC  11           
WINNER         CLOUDY    62  44  51 SE8       29.82R TC  17           
$$
 

SKY/WX - Weather  TMP - Temperature  DP - Dew Point  RH - Humidity
WIND - Wind Direction/Speed PRES - Barometric Pressure VSB - Visibility
WCI - Wind Chill Index E13G22 Wind - East Wind 13 mph/Gusts of 22 mph

Trending Headlines

Trending Entertainment Headlines

Rapid City Radar Loop

Use the map search tool if you want to place a location marker on the radar map...

Rapid City Quick Facts

National Two Day Weather Forecast


E-mail the Rapid City Weather Forecast

Voice your opinion or tell us about page issues...